Sisseton, SD

10:40 PM CST on November 19, 2017 (GMT -0600)
Sisseton

Weather History for K8D3 - April, 2012

Change the Weather History Date:

Thursday, April 26, 2012

  Actual Average Record
Temperature  
Mean Temperature 48 °F 50 °F  
Max Temperature 60 °F 62 °F 91 °F (1962)
Min Temperature 36 °F 37 °F 23 °F (1932)
Degree Days  
Heating Degree Days 17 15  
Month to date heating degree days 432 559  
Since 1 July heating degree days 6375 7901  
Cooling Degree Days 0 0  
Month to date cooling degree days 0 0  
Year to date cooling degree days 7 0  
Moisture  
Dew Point 26 °F    
Average Humidity 46    
Maximum Humidity 70    
Minimum Humidity 21    
Precipitation  
Precipitation 0.00 in 0.12 in 2.00 in (1912)
Month to date precipitation 3.85 1.75  
Year to date precipitation 6.47 3.73  
Snow  
Snow 0.00 in - - ()
Month to date snowfall 0.0  
Since 1 July snowfall 20.9  
Snow Depth 0.00 in    
Sea Level Pressure  
Sea Level Pressure 30.10 in    
Wind  
Wind Speed 14 mph (ENE)    
Max Wind Speed 21 mph    
Max Gust Speed 28 mph    
T = Trace of Precipitation, MM = Missing Value Source: NWS Daily Summary

Daily Weather History Graph

Daily Weather History Graph

Search for Another Location

Airport or City:

Trip Planner

Search our weather history database for the weather conditions in past years. The results will help you decide how hot, cold, wet, or windy it might be!

Date:

Astronomy

Apr. 26, 2012 Rise Set
Actual Time 6:22 AM CDT 8:29 PM CDT
Civil Twilight 5:50 AM CDT 9:01 PM CDT
Nautical Twilight 5:10 AM CDT 9:41 PM CDT
Astronomical Twilight 4:26 AM CDT 10:26 PM CDT
Moon 9:56 AM CDT (4/26) 12:42 AM CDT (4/26)
Length of Visible Light 15h 11m
Length of Day
14h 06m
Waxing Crescent, 24% of the Moon is Illuminated
Apr 26
Waxing Crescent
Apr 29
First Quarter
May 5
Full
May 12
Last Quarter
May 20
New

Hourly Weather History & Observations

Time (CDT) Temp. Windchill Dew Point Humidity Pressure Visibility Wind Dir Wind Speed Gust Speed Precip Events Conditions
12:56 AM 48.9 °F - 35.1 °F 59% 29.96 in - North 18.4 mph - N/A   Unknown
1:56 AM 46.9 °F - 34.0 °F 61% 29.97 in - NNE 17.3 mph - N/A   Unknown
2:56 AM 45.0 °F 39.7 °F 33.1 °F 63% 30.00 in - North 10.4 mph - N/A   Unknown
3:56 AM 42.1 °F 33.3 °F 30.9 °F 65% 30.03 in - North 19.6 mph - N/A   Unknown
4:56 AM 39.0 °F 30.6 °F 30.0 °F 70% 30.06 in - North 15.0 mph - N/A   Unknown
5:56 AM 37.0 °F 28.1 °F 28.9 °F 73% 30.09 in - North 15.0 mph - N/A   Unknown
6:56 AM 37.0 °F 28.5 °F 28.9 °F 73% 30.11 in - NNE 13.8 mph - N/A   Unknown
7:56 AM 37.9 °F 30.0 °F 28.9 °F 70% 30.14 in - NNE 12.7 mph - N/A   Unknown
8:56 AM 39.9 °F 31.8 °F 28.0 °F 63% 30.17 in - North 15.0 mph - N/A   Unknown
9:56 AM 43.0 °F 36.4 °F 28.9 °F 58% 30.18 in - NNE 12.7 mph - N/A   Unknown
10:56 AM 46.0 °F 40.2 °F 26.1 °F 46% 30.18 in - NE 12.7 mph 20.7 mph N/A   Unknown
11:56 AM 48.9 °F - 24.1 °F 38% 30.18 in - NE 15.0 mph 19.6 mph N/A   Unknown
12:56 PM 51.1 °F - 28.0 °F 41% 30.17 in - NE 9.2 mph 16.1 mph N/A   Unknown
1:56 PM 53.1 °F - 24.1 °F 32% 30.16 in - ENE 9.2 mph - N/A   Unknown
2:56 PM 55.0 °F - 23.0 °F 29% 30.14 in - East 12.7 mph 19.6 mph N/A   Unknown
3:56 PM 57.0 °F - 19.9 °F 24% 30.12 in - SE 11.5 mph 18.4 mph N/A   Unknown
4:56 PM 59.0 °F - 19.9 °F 22% 30.11 in - SE 15.0 mph - N/A   Unknown
5:56 PM 59.0 °F - 19.9 °F 22% 30.10 in - SE 13.8 mph - N/A   Unknown
6:56 PM 57.0 °F - 19.0 °F 23% 30.09 in - SE 15.0 mph - N/A   Unknown
7:56 PM 55.0 °F - 19.0 °F 24% 30.09 in - SE 16.1 mph - N/A   Unknown
8:56 PM 53.1 °F - 19.9 °F 27% 30.10 in - SE 12.7 mph - N/A   Unknown
9:56 PM 52.0 °F - 23.0 °F 32% 30.10 in - SE 12.7 mph - N/A   Unknown
10:56 PM 52.0 °F - 24.1 °F 34% 30.09 in - SE 13.8 mph - N/A   Unknown
11:56 PM 51.1 °F - 23.0 °F 33% 30.08 in - SSE 13.8 mph - N/A   Unknown